Showing default

COSMOS 2600, 67674

Orbit data source: Space-Track

COSMOS 2600, 67674 is a payload satellite owned by MO RF (CIS) in SSO that was launched on Thu, 05 Feb 2026 UTC via a SOYUZ-2-1B launch vehicle from the Plesetsk Missile And Space Complex (PKMTR). Payload-class satellites include a variety of spacecraft equipped with specific instruments for various scientific and technological missions. These include communications satellites like Starlink; space stations such as the ISS; scientific satellites like the Hubble; Earth observation satellites from companies like Planet Labs, Umbra, and HawkEye 360; GPS; miniature CubeSats for education and research; and military/defense satellites.

Not visible in the next 10 days
Identifier
67674, 2026-023A
Orbit
SSO
Country
Flag of CISCIS
Related business
Manufacturer
VNIIEM
Mission
Operational spacecraft
Bus & Motor
EMKA, Unknown motor
Mass
520 kg wet, ~500 kg dry
Launch date (UTC)
2026-02-05 (2 months ago)
Launch vehicle
SOYUZ-2-1B
Launch site
Plesetsk Missile And Space Complex (PKMTR)
Object type
Payload
Rocket body
Debris
Shape & HBR
Unknown shape, 14.5 m
Radar Cross Section
RCS unknown

Expand to show TLE details & history
Last TLE update: 11 hours ago

TLE from 11 hours ago
0 COSMOS 2600
1 67674U 26023A   26103.92889986  .00037401  00000-0  17820-3 0  9990
2 67674  96.6364 178.4288 0007689 249.1329 110.9119 15.82741023 10628
Epoch: 2026-04-13T22:17Z
TLE epoch observation values (Epoch: 2026-04-13T22:17:36.947Z)
Latitude
-0.00006°
Longitude
1.9124°
Altitude
327.732 km
Speed
7.711 km/s
True Right ascension
11h 53m 42s
True Declination
0° 00' 00"
Sunlit
Object was in full shadow at epoch
Visualization orbit readout
Latitude
Unknown
Longitude
Unknown
Altitude
Unknown
Speed
Unknown
Apparent Right ascension
Unknown
Apparent Declination
Unknown
Sunlit
N/A
Visualization observer readout
Local Sidereal Time
15:40:31
Azimuth
Unknown
Elevation
Unknown
Doppler factor
Unknown
Orbital elements
Apogee altitude
324.693 km
Perigee altitude
314.394 km
Semi-major axis
6,697.681 km
Eccentricity
0.00077
Inclination
96.6364°
RAAN
178.4288°
Arg. of periapsis
249.1329°
True anomaly
110.99418°
Mean anomaly
110.9119°
Eccentric anomaly
110.95304°
Mean motion
3.95965 °/min
Orbital period
90.92 mins
BSTAR
0.0001782
Loading maneuver chart data...
Computing Atmospheric mass density...
Loading historical data...
Loading historical data...
Loading historical data...
Loading historical data...
Loading historical data...
Loading historical data...
Loading historical data...

Documentation

Showing up to 5 results
|